Location: Gerlach
(40.6516°N, 119.3568°W)
Time: 16:19:56
(UTC-07:00)

A-11 Canister half - Pass Details

Date: 28 February 2024
Orbit: 1525 x 1683 km, 47.3° (Epoch: 22 April)

Event Time Altitude Azimuth Distance (km) Brightness Sun altitude
Exits shadow 04:02:57 16° 190° (S) 3,234 10.4 -29.1°
Drops below altitude 10° 04:05:06 10° 179° (S) 3,722 10.9 -28.7°
Sets 04:08:51 0° 167° (SSE) 4,723 11.6 -28.0°
